Wayne, NE

8:18 PM CDT on August 19, 2017 (GMT -0500)
Wayne Municipal

Weather History for KLCG - November, 2012

Change the Weather History Date:

Wednesday, November 7, 2012

  Actual Average (KOFK) Record (KOFK)
Temperature  
Mean Temperature 40 °F -  
Max Temperature 55 °F 50 °F 78 °F (1915)
Min Temperature 25 °F 27 °F -7 °F (1991)
Degree Days  
Heating Degree Days 25    
Moisture  
Dew Point 29 °F    
Average Humidity 68    
Maximum Humidity 95    
Minimum Humidity 37    
Precipitation  
Precipitation 0.00 in - - ()
Sea Level Pressure  
Sea Level Pressure 30.07 in    
Wind  
Wind Speed 5 mph (South)    
Max Wind Speed 21 mph    
Max Gust Speed 24 mph    
Visibility 10 miles    
Events      
Averages and records for this station are not official NWS values.
T = Trace of Precipitation, MM = Missing Value Source: NWS Daily Summary

Daily Weather History Graph

Daily Weather History Graph

Search for Another Location

Airport or City:

Trip Planner

Search our weather history database for the weather conditions in past years. The results will help you decide how hot, cold, wet, or windy it might be!

Date:

Astronomy

Nov. 07, 2012 Rise Set
Actual Time 7:09 AM CST 5:13 PM CST
Civil Twilight 6:39 AM CST 5:43 PM CST
Nautical Twilight 6:06 AM CST 6:16 PM CST
Astronomical Twilight 5:33 AM CST 6:49 PM CST
Moon No Moon Rise 1:30 PM CST (11/7)
Length of Visible Light 11h 03m
Length of Day
10h 04m
Last Quarter, 43% of the Moon is Illuminated
Nov 7
Last Quarter
Nov 13
New
Nov 20
First Quarter
Nov 28
Full
Dec 6
Last Quarter

Hourly Weather History & Observations

Time (CST) Temp. Windchill Dew Point Humidity Pressure Visibility Wind Dir Wind Speed Gust Speed Precip Events Conditions
12:15 AM 36.7 °F 32.0 °F 30.2 °F 77% 30.09 in 10.0 mi NNW 5.8 mph - N/A   Clear
12:35 AM 35.8 °F 31.9 °F 30.2 °F 80% 30.10 in 10.0 mi North 4.6 mph - N/A   Clear
12:55 AM 32.9 °F 26.7 °F 28.9 °F 85% 30.10 in 10.0 mi NW 6.9 mph - N/A   Clear
1:15 AM 33.8 °F 29.6 °F 29.7 °F 85% 30.10 in 10.0 mi NNW 4.6 mph - N/A   Clear
1:35 AM 32.2 °F - 28.0 °F 85% 30.10 in 10.0 mi Calm Calm - N/A   Clear
1:55 AM 30.0 °F - 26.6 °F 87% 30.10 in 10.0 mi Calm Calm - N/A   Clear
2:15 AM 31.1 °F - 28.4 °F 90% 30.11 in 10.0 mi Calm Calm - N/A   Clear
2:55 AM 28.2 °F - 25.7 °F 90% 30.12 in 10.0 mi Calm Calm - N/A   Clear
3:15 AM 27.7 °F - 25.7 °F 92% 30.12 in 10.0 mi Calm Calm - N/A   Clear
3:35 AM 25.5 °F - 23.5 °F 92% 30.12 in 10.0 mi Calm Calm - N/A   Clear
3:55 AM 26.2 °F - 24.4 °F 93% 30.12 in 10.0 mi Calm Calm - N/A   Clear
4:35 AM 25.9 °F - 24.6 °F 95% 30.13 in 10.0 mi Calm Calm - N/A   Clear
4:55 AM 25.3 °F - 23.7 °F 94% 30.14 in 10.0 mi Calm Calm - N/A   Clear
5:15 AM 25.7 °F - 24.4 °F 95% 30.15 in 10.0 mi Calm Calm - N/A   Clear
5:35 AM 25.9 °F 21.7 °F 24.3 °F 94% 30.15 in 10.0 mi South 3.5 mph - N/A   Clear
5:55 AM 25.3 °F - 23.9 °F 94% 30.15 in 10.0 mi Calm Calm - N/A   Clear
6:15 AM 25.5 °F 21.3 °F 24.1 °F 94% 30.15 in 10.0 mi SSW 3.5 mph - N/A   Clear
6:35 AM 26.6 °F - 25.3 °F 95% 30.15 in 10.0 mi Calm Calm - N/A   Clear
6:55 AM 26.2 °F 22.1 °F 24.6 °F 94% 30.15 in 10.0 mi SW 3.5 mph - N/A   Clear
7:15 AM 26.4 °F - 25.0 °F 94% 30.15 in 10.0 mi Calm Calm - N/A   Clear
7:35 AM 26.4 °F - 24.8 °F 94% 30.16 in 10.0 mi Calm Calm - N/A   Clear
7:55 AM 28.2 °F - 26.6 °F 94% 30.16 in 10.0 mi Calm Calm - N/A   Clear
8:15 AM 30.9 °F - 28.6 °F 91% 30.16 in 10.0 mi Calm Calm - N/A   Clear
8:35 AM 32.0 °F - 29.1 °F 89% 30.16 in 10.0 mi Calm Calm - N/A   Clear
8:55 AM 33.1 °F - 30.0 °F 89% 30.16 in 10.0 mi Calm Calm - N/A   Clear
9:15 AM 35.8 °F - 30.7 °F 82% 30.17 in 10.0 mi Calm Calm - N/A   Clear
9:35 AM 37.8 °F - 31.8 °F 79% 30.16 in 10.0 mi Calm Calm - N/A   Clear
9:55 AM 40.1 °F - 32.0 °F 73% 30.16 in 10.0 mi Calm Calm - N/A   Clear
10:15 AM 43.2 °F - 32.9 °F 67% 30.16 in 10.0 mi Calm Calm - N/A   Clear
10:35 AM 45.1 °F 40.3 °F 32.4 °F 61% 30.15 in 10.0 mi South 9.2 mph - N/A   Clear
10:55 AM 46.4 °F 42.9 °F 31.6 °F 56% 30.15 in 10.0 mi SSE 6.9 mph - N/A   Clear
11:15 AM 46.8 °F - 31.5 °F 55% 30.15 in 10.0 mi South 5.8 mph - N/A   Clear
11:35 AM 48.4 °F - 31.1 °F 51% 30.13 in 10.0 mi SSE 9.2 mph - N/A   Clear
11:55 AM 49.1 °F - 30.9 °F 50% 30.12 in 10.0 mi South 9.2 mph - N/A   Clear
12:15 PM 50.5 °F - 31.1 °F 47% 30.10 in 10.0 mi SSW 8.1 mph - N/A   Clear
12:35 PM 50.9 °F - 31.3 °F 47% 30.09 in 10.0 mi South 8.1 mph - N/A   Clear
12:55 PM 51.3 °F - 31.1 °F 46% 30.08 in 10.0 mi SSE 9.2 mph - N/A   Clear
1:15 PM 53.4 °F - 31.3 °F 43% 30.06 in 10.0 mi South 9.2 mph - N/A   Clear
1:35 PM 52.9 °F - 30.4 °F 42% 30.05 in 10.0 mi South 8.1 mph - N/A   Clear
1:55 PM 53.8 °F - 30.9 °F 42% 30.05 in 10.0 mi SSW 11.5 mph 17.3 mph N/A   Clear
2:15 PM 54.9 °F - 30.0 °F 39% 30.04 in 10.0 mi South 9.2 mph - N/A   Clear
2:35 PM 55.0 °F - 29.5 °F 38% 30.03 in 10.0 mi South 11.5 mph - N/A   Clear
2:55 PM 55.0 °F - 29.1 °F 37% 30.03 in 10.0 mi South 11.5 mph - N/A   Clear
3:15 PM 54.5 °F - 29.1 °F 38% 30.02 in 10.0 mi South 11.5 mph - N/A   Clear
3:35 PM 54.5 °F - 28.9 °F 38% 30.02 in 10.0 mi South 11.5 mph - N/A   Clear
3:55 PM 54.5 °F - 28.9 °F 38% 30.02 in 10.0 mi South 12.7 mph - N/A   Clear
4:15 PM 54.0 °F - 28.9 °F 38% 30.01 in 10.0 mi South 11.5 mph 16.1 mph N/A   Clear
4:35 PM 52.9 °F - 30.0 °F 42% 30.01 in 10.0 mi SSE 11.5 mph - N/A   Clear
4:55 PM 51.4 °F - 30.0 °F 44% 30.01 in 10.0 mi SSE 9.2 mph - N/A   Clear
5:15 PM 49.1 °F - 30.0 °F 48% 30.00 in 10.0 mi SE 8.1 mph - N/A   Clear
5:35 PM 47.5 °F - 30.0 °F 51% 30.00 in 10.0 mi SSE 10.4 mph - N/A   Clear
5:55 PM 45.9 °F 40.8 °F 29.8 °F 54% 30.00 in 10.0 mi SSE 10.4 mph - N/A   Clear
6:15 PM 45.5 °F 39.9 °F 30.0 °F 55% 30.00 in 10.0 mi SSE 11.5 mph - N/A   Clear
6:35 PM 45.0 °F 40.1 °F 30.0 °F 56% 30.00 in 10.0 mi SSE 9.2 mph - N/A   Clear
6:55 PM 44.1 °F 38.1 °F 30.0 °F 58% 30.00 in 10.0 mi SSE 11.5 mph - N/A   Clear
7:15 PM 43.9 °F 36.5 °F 30.6 °F 59% 30.00 in 10.0 mi SSE 16.1 mph - N/A   Clear
7:35 PM 43.0 °F 36.8 °F 30.6 °F 62% 30.00 in 10.0 mi SSE 11.5 mph - N/A   Clear
7:55 PM 41.7 °F 36.1 °F 30.2 °F 64% 29.99 in 10.0 mi SSE 9.2 mph - N/A   Clear
8:15 PM 41.0 °F 34.7 °F 30.2 °F 65% 29.99 in 10.0 mi SSE 10.4 mph - N/A   Clear
8:35 PM 40.8 °F 34.5 °F 30.0 °F 65% 29.99 in 10.0 mi SSE 10.4 mph - N/A   Clear
8:55 PM 41.0 °F 34.7 °F 30.2 °F 65% 29.99 in 10.0 mi SSE 10.4 mph - N/A   Clear
9:15 PM 42.3 °F 35.5 °F 30.7 °F 64% 30.00 in 10.0 mi South 12.7 mph - N/A   Clear
9:35 PM 42.1 °F 34.5 °F 30.7 °F 64% 30.00 in 10.0 mi SSE 15.0 mph - N/A   Clear
9:55 PM 42.1 °F 34.5 °F 30.7 °F 64% 29.98 in 10.0 mi South 15.0 mph - N/A   Clear
10:15 PM 41.9 °F 34.3 °F 30.6 °F 64% 29.98 in 10.0 mi South 15.0 mph - N/A   Clear
10:35 PM 41.5 °F 33.5 °F 30.4 °F 65% 29.97 in 10.0 mi South 16.1 mph - N/A   Clear
10:55 PM 42.8 °F 34.3 °F 30.2 °F 61% 29.96 in 10.0 mi South 19.6 mph 24.2 mph N/A   Clear
11:15 PM 42.4 °F 33.5 °F 30.2 °F 62% 29.95 in 10.0 mi South 20.7 mph - N/A   Clear
11:35 PM 41.9 °F 33.7 °F 30.0 °F 63% 29.95 in 10.0 mi South 17.3 mph - N/A   Clear
11:55 PM 41.4 °F 33.0 °F 29.8 °F 64% 29.94 in 10.0 mi South 17.3 mph 23.0 mph N/A   Clear